Track COSMOS 1771 now! 10-day predictions COSMOS 1771 is classified as:
1 16917U 86062A 21107.60730164 -.00000069 00000-0 17624-4 0 9994 2 16917 64.9834 189.0886 0057750 211.4855 148.2744 13.82513759750950